Showing default

LEMUR-2 DELOITTE-2, 68491

Orbit data source: Space-Track

LEMUR-2 DELOITTE-2, 68491 is an American payload satellite in SSO that was launched on Mon, 30 Mar 2026 UTC via an FALCON 9 launch vehicle from the Air Force Western Test Range (AFWTR). Payload-class satellites include a variety of spacecraft equipped with specific instruments for various scientific and technological missions. These include communications satellites like Starlink; space stations such as the ISS; scientific satellites like the Hubble; Earth observation satellites from companies like Planet Labs, Umbra, and HawkEye 360; GPS; miniature CubeSats for education and research; and military/defense satellites.

Loading next visibility...
Identifier
68491, 2026-067CD
Orbit
SSO
Country
Flag of USUS
Related business
Manufacturer
Spire/Glasgow
Mission
Operational Commercial Com/MetRO
Bus & Motor
CUBESAT 6U, Unknown motor
Mass
10 kg wet, 10 kg dry
Launch date (UTC)
2026-03-30 (6 months ago)
Launch vehicle
FALCON 9
Launch site
Air Force Western Test Range (AFWTR)
Object type
Payload
Rocket body
Debris
Shape & HBR
Box, 0.2 m
Radar Cross Section
0.080 m², Medium (>0.1 m² and < 1m²)

Expand to show TLE details & history
Last TLE update: 14 hours ago

TLE from 14 hours ago
0 LEMUR-2 DELOITTE-2
1 68491U 26067CD  26263.11282319  .00003268  00000-0  32568-3 0  9991
2 68491  97.7660 219.8263 0004708  91.2286 268.9472 14.92264659 25871
Epoch: 2026-09-20T02:42Z
TLE epoch observation values (Epoch: 2026-09-20T02:42:27.923Z)
Latitude
-0.00007°
Longitude
-179.80171°
Altitude
593.98 km
Speed
7.563 km/s
True Right ascension
14h 39m 18s
True Declination
0° 00' 00"
Sunlit
Object was in daylight at epoch
Visualization orbit readout
Latitude
Unknown
Longitude
Unknown
Altitude
Unknown
Speed
Unknown
Apparent Right ascension
Unknown
Apparent Declination
Unknown
Sunlit
N/A
Visualization observer readout
Local Sidereal Time
09:42:06
Azimuth
Unknown
Elevation
Unknown
Doppler factor
Unknown
Orbital elements
Apogee altitude
591.174 km
Perigee altitude
584.615 km
Semi-major axis
6,966.031 km
Eccentricity
0.00047
Inclination
97.766°
RAAN
219.8263°
Arg. of periapsis
91.2286°
True anomaly
268.89326°
Mean anomaly
268.9472°
Eccentric anomaly
268.92023°
Mean motion
3.73306 °/min
Orbital period
96.44 mins
BSTAR
0.00032568
Loading maneuver chart data...
Computing Atmospheric mass density...
Loading historical data...
Loading historical data...
Loading historical data...
Loading historical data...
Loading historical data...
Loading historical data...
Loading historical data...

Documentation

Showing up to 5 results
|